User: anonymous
Location: SAPM � Hemmingford
(45.0500°N, 73.5833°W)
Time: 21:02:50
(UTC-04:00)
Language:

Cosmos 1603 - Orbit

View from above orbital plane
View from above orbital plane
View from above satellite
View from above satellite

Ground track
Ground track

The orbit data is extracted from the following two-line orbital elements,

1 15333U 84106A   14237.13680448  .00000248  00000-0  15517-3 0   622
2 15333 071.0269 082.8208 0020960 326.4699 172.0147 14.13946369543084
Epoch (UTC): 25 August 2014 03:16:59
Eccentricity: 0.0020960
inclination: 71.0269°
perigee height: 831 km
apogee height: 861 km
right ascension of ascending node: 82.8208°
argument of perigee: 326.4699°
revolutions per day: 14.13946369
mean anomaly at epoch: 172.0147°
orbit number at epoch: 54308

The dashed part of the orbit path shows where the satellite is in the earth's shadow,  

DLR